{"data":{"norad_id":53229,"epoch":"2026-09-20T04:00:03.000096Z","epoch_age_seconds":101002,"freshness":"FRESH","line1":"1 53229U 22084AS  26263.16670139  .00047742  00000+0  15675-2 0  9998","line2":"2 53229  97.2841 318.9398 0001466  72.8758  76.4545 15.31426384  5888","mean_motion":15.31426384,"eccentricity":0.0001466,"inclination_deg":97.2841,"raan_deg":318.9398,"arg_perigee_deg":72.8758,"mean_anomaly_deg":76.4545,"bstar":0.0015675,"rev_number":588,"period_min":94.02998505477,"perigee_km":470.55158676352,"apogee_km":472.55991667833,"semimajor_km":6849.6927517209,"source":"CELESTRAK","updated_at":"2026-09-20T09:00:40.196286Z"}}